Location: Borojevi?i
(45.0486°N, 16.2297°E)
Time: 08:22:10
(UTC+00:00)

USA 238 DEB - Pass Details

Date: 08 August 2020
Orbit: 1006 x 1206 km, 63.4° (Epoch: 19 September)

Event Time Altitude Azimuth Distance (km) Brightness Sun altitude
Rises 20:29:19 0° 209° (SSW) 3,729 6.3 -20.1°
Reaches altitude 10° 20:31:53 10° 207° (SSW) 2,793 5.7 -20.4°
Maximum altitude 20:38:25 74° 124° (SE) 1,081 3.5 -21.1°
Drops below altitude 10° 20:45:16 10° 41° (NE) 2,918 6.1 -21.8°
Sets 20:47:59 0° 39° (NE) 3,907 6.9 -22.1°
